contact:dominique.lefevre@mio.osupytheas.fr, maurice.libes@osupytheas.fr, didier.mallarino@osupytheas.fr
Project:EMSO http://www.emso-fr.org/EMSO-France
Depth: 2436.0 m
Title:EMSO Ligure Ouest : Data MII capteur CSTAR
DateTime,Latitude,Longitude,Instrument_Serial,Reference_Counts,Signal_Counts,Corrected_Signal_raw_counts,Calculated_Beam_c_inverse_meters,Internal_thermistor_counts
DateTime,Latitude,Longitude,Instrument_Serial,Reference_Counts,Signal_Counts,Corrected_Signal_raw_counts,Calculated_Beam_c_inverse_meters,Internal_thermistor_counts
2023-07-12T00:02:12,42.805,6.029,CST-1368DR,4257,4655,11605,01.187,552
2023-07-12T00:05:14,42.805,6.029,CST-1368DR,4257,4655,11605,01.187,552
2023-07-12T00:08:16,42.805,6.029,CST-1368DR,4257,4655,11604,01.188,552
2023-07-12T00:11:17,42.805,6.029,CST-1368DR,4257,4655,11605,01.187,552
2023-07-12T00:14:19,42.805,6.029,CST-1368DR,4257,4655,11604,01.188,552
2023-07-12T00:17:20,42.805,6.029,CST-1368DR,4257,4656,11606,01.187,552
2023-07-12T00:20:22,42.805,6.029,CST-1368DR,4257,4654,11603,01.188,552
2023-07-12T00:23:24,42.805,6.029,CST-1368DR,4257,4654,11601,01.189,552
2023-07-12T00:26:25,42.805,6.029,CST-1368DR,4257,4654,11602,01.188,552
2023-07-12T00:29:27,42.805,6.029,CST-1368DR,4257,4655,11604,01.188,552
2023-07-12T00:32:28,42.805,6.029,CST-1368DR,4257,4655,11604,01.188,552
2023-07-12T00:35:30,42.805,6.029,CST-1368DR,4257,4654,11601,01.189,552
2023-07-12T00:38:31,42.805,6.029,CST-1368DR,4257,4654,11603,01.188,552
2023-07-12T00:41:33,42.805,6.029,CST-1368DR,4257,4653,11600,01.189,552
2023-07-12T00:44:35,42.805,6.029,CST-1368DR,4257,4654,11601,01.189,552
2023-07-12T00:47:36,42.805,6.029,CST-1368DR,4257,4654,11602,01.188,552
2023-07-12T00:50:38,42.805,6.029,CST-1368DR,4257,4654,11601,01.189,552
2023-07-12T00:53:39,42.805,6.029,CST-1368DR,4257,4653,11600,01.189,552
2023-07-12T00:56:41,42.805,6.029,CST-1368DR,4257,4653,11599,01.190,552
2023-07-12T00:59:42,42.805,6.029,CST-1368DR,4257,4653,11599,01.190,552
2023-07-12T01:02:44,42.805,6.029,CST-1368DR,4257,4653,11598,01.190,552
2023-07-12T01:05:46,42.805,6.029,CST-1368DR,4257,4655,11604,01.188,552
2023-07-12T01:08:47,42.805,6.029,CST-1368DR,4257,4654,11602,01.188,552
2023-07-12T01:11:49,42.805,6.029,CST-1368DR,4257,4653,11599,01.190,552
2023-07-12T01:14:50,42.805,6.029,CST-1368DR,4257,4654,11601,01.189,552
2023-07-12T01:17:52,42.805,6.029,CST-1368DR,4257,4653,11600,01.189,552
2023-07-12T01:20:54,42.805,6.029,CST-1368DR,4257,4652,11596,01.191,552
2023-07-12T01:23:55,42.805,6.029,CST-1368DR,4257,4653,11599,01.190,552
2023-07-12T01:26:57,42.805,6.029,CST-1368DR,4257,4653,11598,01.190,552
2023-07-12T01:29:58,42.805,6.029,CST-1368DR,4257,4653,11599,01.190,552
2023-07-12T01:33:00,42.805,6.029,CST-1368DR,4257,4652,11596,01.191,552
2023-07-12T01:36:01,42.805,6.029,CST-1368DR,4257,4652,11598,01.190,552
2023-07-12T01:39:03,42.805,6.029,CST-1368DR,4257,4653,11599,01.190,552
2023-07-12T01:42:05,42.805,6.029,CST-1368DR,4257,4653,11599,01.190,552
2023-07-12T01:45:06,42.805,6.029,CST-1368DR,4257,4653,11600,01.189,552
2023-07-12T01:48:08,42.805,6.029,CST-1368DR,4257,4653,11599,01.190,552
2023-07-12T01:51:09,42.805,6.029,CST-1368DR,4257,4650,11593,01.192,552
2023-07-12T01:54:11,42.805,6.029,CST-1368DR,4257,4653,11599,01.190,552
2023-07-12T01:57:12,42.805,6.029,CST-1368DR,4257,4653,11600,01.189,552
2023-07-12T02:00:14,42.805,6.029,CST-1368DR,4257,4653,11598,01.190,552
2023-07-12T02:03:16,42.805,6.029,CST-1368DR,4257,4654,11601,01.189,552
2023-07-12T02:06:17,42.805,6.029,CST-1368DR,4257,4654,11601,01.189,552
2023-07-12T02:09:19,42.805,6.029,CST-1368DR,4257,4652,11596,01.191,552
2023-07-12T02:12:20,42.805,6.029,CST-1368DR,4257,4652,11597,01.190,552
2023-07-12T02:15:22,42.805,6.029,CST-1368DR,4257,4653,11600,01.189,552
2023-07-12T02:18:24,42.805,6.029,CST-1368DR,4257,4653,11599,01.190,552
2023-07-12T02:21:25,42.805,6.029,CST-1368DR,4257,4654,11602,01.188,552
2023-07-12T02:24:27,42.805,6.029,CST-1368DR,4257,4652,11596,01.191,552
2023-07-12T02:27:28,42.805,6.029,CST-1368DR,4257,4651,11595,01.191,552
2023-07-12T02:30:30,42.805,6.029,CST-1368DR,4257,4653,11599,01.190,552
2023-07-12T02:33:31,42.805,6.029,CST-1368DR,4257,4652,11596,01.191,552
2023-07-12T02:36:33,42.805,6.029,CST-1368DR,4257,4652,11596,01.191,552
2023-07-12T02:39:35,42.805,6.029,CST-1368DR,4257,4652,11598,01.190,552
2023-07-12T02:42:36,42.805,6.029,CST-1368DR,4257,4651,11595,01.191,552
2023-07-12T02:45:38,42.805,6.029,CST-1368DR,4257,4652,11596,01.191,552
2023-07-12T02:48:39,42.805,6.029,CST-1368DR,4257,4652,11596,01.191,552
2023-07-12T02:51:41,42.805,6.029,CST-1368DR,4257,4653,11600,01.189,552
2023-07-12T02:54:43,42.805,6.029,CST-1368DR,4257,4651,11595,01.191,552
2023-07-12T02:57:44,42.805,6.029,CST-1368DR,4257,4651,11595,01.191,552
2023-07-12T03:00:46,42.805,6.029,CST-1368DR,4257,4651,11594,01.191,552
2023-07-12T03:03:47,42.805,6.029,CST-1368DR,4257,4650,11593,01.192,552
2023-07-12T03:06:49,42.805,6.029,CST-1368DR,4257,4652,11596,01.191,552
2023-07-12T03:09:50,42.805,6.029,CST-1368DR,4257,4651,11594,01.191,552
2023-07-12T03:12:52,42.805,6.029,CST-1368DR,4257,4651,11595,01.191,552
2023-07-12T03:15:54,42.805,6.029,CST-1368DR,4257,4651,11594,01.191,552
2023-07-12T03:18:55,42.805,6.029,CST-1368DR,4257,4653,11598,01.190,552
2023-07-12T03:21:57,42.805,6.029,CST-1368DR,4257,4651,11595,01.191,552
2023-07-12T03:24:58,42.805,6.029,CST-1368DR,4257,4651,11595,01.191,552
2023-07-12T03:28:00,42.805,6.029,CST-1368DR,4257,4653,11599,01.190,552
2023-07-12T03:31:01,42.805,6.029,CST-1368DR,4257,4652,11596,01.191,552
2023-07-12T03:34:03,42.805,6.029,CST-1368DR,4257,4651,11595,01.191,552
2023-07-12T03:37:05,42.805,6.029,CST-1368DR,4257,4652,11597,01.190,552
2023-07-12T03:40:06,42.805,6.029,CST-1368DR,4257,4651,11593,01.192,552
2023-07-12T03:43:08,42.805,6.029,CST-1368DR,4257,4652,11596,01.191,552
2023-07-12T03:46:09,42.805,6.029,CST-1368DR,4257,4652,11596,01.191,552
2023-07-12T03:49:11,42.805,6.029,CST-1368DR,4257,4650,11592,01.192,552
2023-07-12T03:52:13,42.805,6.029,CST-1368DR,4257,4652,11597,01.190,552
2023-07-12T03:55:14,42.805,6.029,CST-1368DR,4257,4652,11596,01.191,552
2023-07-12T03:58:16,42.805,6.029,CST-1368DR,4257,4652,11596,01.191,552
2023-07-12T04:01:17,42.805,6.029,CST-1368DR,4257,4651,11593,01.192,552
2023-07-12T04:04:19,42.805,6.029,CST-1368DR,4257,4651,11595,01.191,552
2023-07-12T04:07:20,42.805,6.029,CST-1368DR,4257,4651,11593,01.192,552
2023-07-12T04:10:22,42.805,6.029,CST-1368DR,4257,4651,11595,01.191,552
2023-07-12T04:13:24,42.805,6.029,CST-1368DR,4257,4651,11594,01.191,552
2023-07-12T04:16:25,42.805,6.029,CST-1368DR,4257,4650,11593,01.192,552
2023-07-12T04:19:27,42.805,6.029,CST-1368DR,4257,4652,11596,01.191,552
2023-07-12T04:22:28,42.805,6.029,CST-1368DR,4257,4652,11596,01.191,552
2023-07-12T04:25:30,42.805,6.029,CST-1368DR,4257,4651,11595,01.191,552
2023-07-12T04:28:31,42.805,6.029,CST-1368DR,4257,4653,11598,01.190,552
2023-07-12T04:31:33,42.805,6.029,CST-1368DR,4257,4651,11594,01.191,552
2023-07-12T04:34:35,42.805,6.029,CST-1368DR,4257,4650,11593,01.192,552
2023-07-12T04:37:36,42.805,6.029,CST-1368DR,4257,4649,11590,01.193,552
2023-07-12T04:40:38,42.805,6.029,CST-1368DR,4257,4651,11594,01.191,552
2023-07-12T04:43:39,42.805,6.029,CST-1368DR,4257,4652,11596,01.191,552
2023-07-12T04:46:41,42.805,6.029,CST-1368DR,4257,4652,11596,01.191,552
2023-07-12T04:49:43,42.805,6.029,CST-1368DR,4257,4651,11595,01.191,552
2023-07-12T04:52:44,42.805,6.029,CST-1368DR,4257,4652,11596,01.191,552
2023-07-12T04:55:46,42.805,6.029,CST-1368DR,4257,4652,11596,01.191,552
2023-07-12T04:58:47,42.805,6.029,CST-1368DR,4257,4652,11597,01.190,552
2023-07-12T05:01:49,42.805,6.029,CST-1368DR,4257,4651,11594,01.191,552
2023-07-12T05:04:50,42.805,6.029,CST-1368DR,4257,4652,11597,01.190,552
2023-07-12T05:07:52,42.805,6.029,CST-1368DR,4257,4651,11593,01.192,552
2023-07-12T05:10:54,42.805,6.029,CST-1368DR,4257,4653,11598,01.190,552
2023-07-12T05:13:55,42.805,6.029,CST-1368DR,4257,4652,11597,01.190,552
2023-07-12T05:16:57,42.805,6.029,CST-1368DR,4257,4652,11596,01.191,552
2023-07-12T05:19:58,42.805,6.029,CST-1368DR,4256,4653,11601,01.189,552
2023-07-12T05:23:00,42.805,6.029,CST-1368DR,4256,4649,11592,01.192,552
2023-07-12T05:26:01,42.805,6.029,CST-1368DR,4256,4652,11599,01.190,552
2023-07-12T05:29:03,42.805,6.029,CST-1368DR,4256,4651,11596,01.191,552
2023-07-12T05:32:05,42.805,6.029,CST-1368DR,4256,4651,11596,01.191,552
2023-07-12T05:35:06,42.805,6.029,CST-1368DR,4256,4651,11598,01.190,552
2023-07-12T05:38:08,42.805,6.029,CST-1368DR,4256,4651,11598,01.190,552
2023-07-12T05:41:09,42.805,6.029,CST-1368DR,4256,4651,11597,01.190,552
2023-07-12T05:44:11,42.805,6.029,CST-1368DR,4256,4651,11598,01.190,552
2023-07-12T05:47:13,42.805,6.029,CST-1368DR,4256,4650,11595,01.191,552
2023-07-12T05:50:14,42.805,6.029,CST-1368DR,4256,4650,11594,01.191,552
2023-07-12T05:53:16,42.805,6.029,CST-1368DR,4256,4652,11598,01.190,552
2023-07-12T05:56:17,42.805,6.029,CST-1368DR,4256,4652,11598,01.190,552
2023-07-12T05:59:19,42.805,6.029,CST-1368DR,4256,4650,11594,01.191,552
2023-07-12T06:02:20,42.805,6.029,CST-1368DR,4256,4652,11598,01.190,552
2023-07-12T06:05:22,42.805,6.029,CST-1368DR,4256,4649,11593,01.192,552
2023-07-12T06:08:24,42.805,6.029,CST-1368DR,4256,4652,11600,01.189,552
2023-07-12T06:11:25,42.805,6.029,CST-1368DR,4256,4652,11598,01.190,552
2023-07-12T06:14:27,42.805,6.029,CST-1368DR,4256,4650,11594,01.191,552
2023-07-12T06:17:28,42.805,6.029,CST-1368DR,4256,4649,11593,01.192,552
2023-07-12T06:20:30,42.805,6.029,CST-1368DR,4256,4651,11597,01.190,552
2023-07-12T06:23:31,42.805,6.029,CST-1368DR,4256,4652,11600,01.189,552
2023-07-12T06:26:33,42.805,6.029,CST-1368DR,4256,4643,11577,01.197,552
2023-07-12T06:29:35,42.805,6.029,CST-1368DR,4256,4649,11592,01.192,552
2023-07-12T06:32:39,42.805,6.029,CST-1368DR,4256,4652,11600,01.189,552
2023-07-12T06:35:40,42.805,6.029,CST-1368DR,4256,4651,11597,01.190,552
2023-07-12T06:38:42,42.805,6.029,CST-1368DR,4256,4651,11596,01.191,552
2023-07-12T06:41:43,42.805,6.029,CST-1368DR,4256,4650,11595,01.191,552
2023-07-12T06:44:45,42.805,6.029,CST-1368DR,4256,4648,11590,01.193,552
2023-07-12T06:47:46,42.805,6.029,CST-1368DR,4256,4642,11574,01.198,552
2023-07-12T06:50:48,42.805,6.029,CST-1368DR,4256,4648,11589,01.193,552
2023-07-12T06:53:50,42.805,6.029,CST-1368DR,4256,4646,11585,01.194,552
2023-07-12T06:56:51,42.805,6.029,CST-1368DR,4256,4644,11580,01.196,552
2023-07-12T06:59:53,42.805,6.029,CST-1368DR,4256,4649,11592,01.192,552
2023-07-12T07:02:54,42.805,6.029,CST-1368DR,4256,4648,11590,01.193,552
2023-07-12T07:05:56,42.805,6.029,CST-1368DR,4256,4645,11583,01.195,552
2023-07-12T07:08:57,42.805,6.029,CST-1368DR,4256,4651,11596,01.191,552
2023-07-12T07:11:59,42.805,6.029,CST-1368DR,4256,4645,11582,01.195,552
2023-07-12T07:15:01,42.805,6.029,CST-1368DR,4256,4650,11593,01.192,552
2023-07-12T07:18:02,42.805,6.029,CST-1368DR,4256,4650,11595,01.191,552
2023-07-12T07:21:04,42.805,6.029,CST-1368DR,4256,4650,11595,01.191,552
2023-07-12T07:24:05,42.805,6.029,CST-1368DR,4256,4647,11587,01.194,552
2023-07-12T07:27:07,42.805,6.029,CST-1368DR,4256,4651,11596,01.191,552
2023-07-12T07:30:08,42.805,6.029,CST-1368DR,4256,4645,11582,01.195,552
2023-07-12T07:33:10,42.805,6.029,CST-1368DR,4256,4650,11595,01.191,552
2023-07-12T07:36:12,42.805,6.029,CST-1368DR,4256,4650,11595,01.191,552
2023-07-12T07:39:13,42.805,6.029,CST-1368DR,4256,4648,11589,01.193,552
2023-07-12T07:42:15,42.805,6.029,CST-1368DR,4256,4650,11593,01.192,552
2023-07-12T07:45:16,42.805,6.029,CST-1368DR,4256,4650,11594,01.191,552
2023-07-12T07:48:18,42.805,6.029,CST-1368DR,4256,4651,11596,01.191,552
2023-07-12T07:51:20,42.805,6.029,CST-1368DR,4256,4649,11592,01.192,552
2023-07-12T07:54:21,42.805,6.029,CST-1368DR,4256,4650,11593,01.192,552
2023-07-12T07:57:23,42.805,6.029,CST-1368DR,4256,4651,11597,01.190,552
2023-07-12T08:00:24,42.805,6.029,CST-1368DR,4256,4649,11592,01.192,552
2023-07-12T08:03:26,42.805,6.029,CST-1368DR,4256,4650,11595,01.191,552
2023-07-12T08:06:27,42.805,6.029,CST-1368DR,4256,4648,11589,01.193,552
2023-07-12T08:09:29,42.805,6.029,CST-1368DR,4256,4650,11593,01.192,552
2023-07-12T08:12:31,42.805,6.029,CST-1368DR,4256,4649,11592,01.192,552
2023-07-12T08:15:32,42.805,6.029,CST-1368DR,4256,4649,11593,01.192,552
2023-07-12T08:18:34,42.805,6.029,CST-1368DR,4256,4649,11592,01.192,552
2023-07-12T08:21:35,42.805,6.029,CST-1368DR,4256,4650,11595,01.191,552
2023-07-12T08:24:37,42.805,6.029,CST-1368DR,4256,4648,11590,01.193,552
2023-07-12T08:27:38,42.805,6.029,CST-1368DR,4256,4651,11598,01.190,552
2023-07-12T08:30:41,42.805,6.029,CST-1368DR,4256,4651,11597,01.190,552
2023-07-12T08:33:43,42.805,6.029,CST-1368DR,4256,4651,11597,01.190,552
2023-07-12T08:36:44,42.805,6.029,CST-1368DR,4256,4651,11597,01.190,552
2023-07-12T08:39:46,42.805,6.029,CST-1368DR,4256,4650,11593,01.192,552
2023-07-12T08:42:47,42.805,6.029,CST-1368DR,4257,4652,11596,01.191,552
2023-07-12T08:45:49,42.805,6.029,CST-1368DR,4256,4651,11598,01.190,552
2023-07-12T08:48:51,42.805,6.029,CST-1368DR,4257,4651,11594,01.191,552
2023-07-12T08:51:52,42.805,6.029,CST-1368DR,4256,4650,11593,01.192,552
2023-07-12T08:54:54,42.805,6.029,CST-1368DR,4256,4649,11593,01.192,552
2023-07-12T08:57:55,42.805,6.029,CST-1368DR,4256,4649,11591,01.192,552
2023-07-12T09:00:57,42.805,6.029,CST-1368DR,4256,4647,11586,01.194,552
2023-07-12T09:03:58,42.805,6.029,CST-1368DR,4256,4651,11597,01.190,552
2023-07-12T09:07:00,42.805,6.029,CST-1368DR,4256,4650,11595,01.191,552
2023-07-12T09:10:02,42.805,6.029,CST-1368DR,4257,4651,11595,01.191,552
2023-07-12T09:13:03,42.805,6.029,CST-1368DR,4256,4650,11594,01.191,552
2023-07-12T09:16:05,42.805,6.029,CST-1368DR,4256,4649,11593,01.192,552
2023-07-12T09:19:06,42.805,6.029,CST-1368DR,4257,4650,11592,01.192,552
2023-07-12T09:22:08,42.805,6.029,CST-1368DR,4256,4650,11594,01.191,552
2023-07-12T09:25:10,42.805,6.029,CST-1368DR,4256,4649,11592,01.192,552
2023-07-12T09:28:11,42.805,6.029,CST-1368DR,4257,4649,11589,01.193,552
2023-07-12T09:31:13,42.805,6.029,CST-1368DR,4256,4648,11590,01.193,552
2023-07-12T09:34:14,42.805,6.029,CST-1368DR,4256,4648,11590,01.193,552
2023-07-12T09:37:16,42.805,6.029,CST-1368DR,4256,4649,11592,01.192,552
2023-07-12T09:40:17,42.805,6.029,CST-1368DR,4256,4649,11593,01.192,552
2023-07-12T09:43:19,42.805,6.029,CST-1368DR,4256,4648,11590,01.193,552
2023-07-12T09:46:21,42.805,6.029,CST-1368DR,4256,4649,11592,01.192,552
2023-07-12T09:49:22,42.805,6.029,CST-1368DR,4256,4650,11594,01.191,552
2023-07-12T09:52:24,42.805,6.029,CST-1368DR,4256,4649,11591,01.192,552
2023-07-12T09:55:25,42.805,6.029,CST-1368DR,4256,4648,11590,01.193,552
2023-07-12T09:58:27,42.805,6.029,CST-1368DR,4257,4650,11593,01.192,552
2023-07-12T10:01:28,42.805,6.029,CST-1368DR,4257,4651,11595,01.191,552
2023-07-12T10:04:30,42.805,6.029,CST-1368DR,4256,4646,11585,01.194,552
2023-07-12T10:07:32,42.805,6.029,CST-1368DR,4257,4648,11587,01.194,552
2023-07-12T10:10:33,42.805,6.029,CST-1368DR,4256,4650,11594,01.191,552
2023-07-12T10:13:35,42.805,6.029,CST-1368DR,4256,4648,11589,01.193,552
2023-07-12T10:16:36,42.805,6.029,CST-1368DR,4256,4647,11587,01.194,552
2023-07-12T10:19:38,42.805,6.029,CST-1368DR,4256,4649,11591,01.192,552
2023-07-12T10:22:40,42.805,6.029,CST-1368DR,4256,4648,11589,01.193,552
2023-07-12T10:25:41,42.805,6.029,CST-1368DR,4256,4648,11589,01.193,552
2023-07-12T10:28:43,42.805,6.029,CST-1368DR,4256,4649,11591,01.192,552
2023-07-12T10:31:44,42.805,6.029,CST-1368DR,4256,4648,11590,01.193,552
2023-07-12T10:34:46,42.805,6.029,CST-1368DR,4256,4650,11594,01.191,552
2023-07-12T10:37:47,42.805,6.029,CST-1368DR,4257,4650,11591,01.192,552
2023-07-12T10:40:49,42.805,6.029,CST-1368DR,4256,4647,11587,01.194,552
2023-07-12T10:43:51,42.805,6.029,CST-1368DR,4257,4649,11589,01.193,552
2023-07-12T10:46:52,42.805,6.029,CST-1368DR,4256,4649,11591,01.192,552
2023-07-12T10:49:54,42.805,6.029,CST-1368DR,4256,4649,11592,01.192,552
2023-07-12T10:52:55,42.805,6.029,CST-1368DR,4256,4648,11590,01.193,552
2023-07-12T10:55:57,42.805,6.029,CST-1368DR,4256,4648,11589,01.193,552
2023-07-12T10:58:58,42.805,6.029,CST-1368DR,4256,4648,11590,01.193,552
2023-07-12T11:02:00,42.805,6.029,CST-1368DR,4256,4648,11589,01.193,552
2023-07-12T11:05:02,42.805,6.029,CST-1368DR,4257,4649,11588,01.193,552
2023-07-12T11:08:03,42.805,6.029,CST-1368DR,4256,4648,11589,01.193,552
2023-07-12T11:11:05,42.805,6.029,CST-1368DR,4256,4646,11585,01.194,552
2023-07-12T11:14:06,42.805,6.029,CST-1368DR,4256,4647,11588,01.193,552
2023-07-12T11:17:08,42.805,6.029,CST-1368DR,4256,4648,11589,01.193,552
2023-07-12T11:20:09,42.805,6.029,CST-1368DR,4256,4639,11568,01.200,552
2023-07-12T11:23:11,42.805,6.029,CST-1368DR,4257,4658,11612,01.185,552
2023-07-12T11:26:13,42.805,6.029,CST-1368DR,4256,4651,11596,01.191,552
2023-07-12T11:29:14,42.805,6.029,CST-1368DR,4256,4648,11589,01.193,552
2023-07-12T11:32:16,42.805,6.029,CST-1368DR,4256,4647,11588,01.193,552
2023-07-12T11:35:17,42.805,6.029,CST-1368DR,4256,4648,11590,01.193,552
2023-07-12T11:38:19,42.805,6.029,CST-1368DR,4256,4647,11586,01.194,552
2023-07-12T11:41:21,42.805,6.029,CST-1368DR,4256,4647,11586,01.194,552
2023-07-12T11:44:22,42.805,6.029,CST-1368DR,4256,4648,11589,01.193,552
2023-07-12T11:47:24,42.805,6.029,CST-1368DR,4256,4647,11588,01.193,552
2023-07-12T11:50:25,42.805,6.029,CST-1368DR,4256,4648,11590,01.193,552
2023-07-12T11:53:27,42.805,6.029,CST-1368DR,4256,4647,11586,01.194,552
2023-07-12T11:56:28,42.805,6.029,CST-1368DR,4256,4648,11589,01.193,552
2023-07-12T11:59:30,42.805,6.029,CST-1368DR,4256,4647,11586,01.194,552
2023-07-12T12:02:32,42.805,6.029,CST-1368DR,4256,4648,11589,01.193,552
2023-07-12T12:05:33,42.805,6.029,CST-1368DR,4256,4646,11585,01.194,552
2023-07-12T12:08:35,42.805,6.029,CST-1368DR,4256,4647,11586,01.194,552
2023-07-12T12:11:36,42.805,6.029,CST-1368DR,4256,4647,11586,01.194,552
2023-07-12T12:14:38,42.805,6.029,CST-1368DR,4256,4650,11594,01.191,552
2023-07-12T12:17:39,42.805,6.029,CST-1368DR,4256,4647,11588,01.193,552
2023-07-12T12:20:41,42.805,6.029,CST-1368DR,4256,4648,11589,01.193,552
2023-07-12T12:23:43,42.805,6.029,CST-1368DR,4256,4647,11588,01.193,552
2023-07-12T12:26:44,42.805,6.029,CST-1368DR,4256,4647,11586,01.194,552
2023-07-12T12:29:46,42.805,6.029,CST-1368DR,4256,4647,11587,01.194,552
2023-07-12T12:32:47,42.805,6.029,CST-1368DR,4256,4646,11585,01.194,552
2023-07-12T12:35:49,42.805,6.029,CST-1368DR,4256,4646,11584,01.195,552
2023-07-12T12:38:51,42.805,6.029,CST-1368DR,4256,4650,11593,01.192,552
2023-07-12T12:41:52,42.805,6.029,CST-1368DR,4256,4649,11592,01.192,552
2023-07-12T12:44:54,42.805,6.029,CST-1368DR,4256,4649,11592,01.192,552
2023-07-12T12:47:55,42.805,6.029,CST-1368DR,4256,4650,11594,01.191,552
2023-07-12T12:50:57,42.805,6.029,CST-1368DR,4256,4649,11592,01.192,552
2023-07-12T12:53:58,42.805,6.029,CST-1368DR,4256,4650,11594,01.191,552
2023-07-12T12:57:00,42.805,6.029,CST-1368DR,4256,4651,11597,01.190,552
2023-07-12T13:00:02,42.805,6.029,CST-1368DR,4256,4650,11593,01.192,552
2023-07-12T13:03:03,42.805,6.029,CST-1368DR,4256,4648,11589,01.193,552
2023-07-12T13:06:05,42.805,6.029,CST-1368DR,4256,4650,11594,01.191,552
2023-07-12T13:09:06,42.805,6.029,CST-1368DR,4256,4649,11591,01.192,552
2023-07-12T13:12:08,42.805,6.029,CST-1368DR,4256,4650,11593,01.192,552
2023-07-12T13:15:09,42.805,6.029,CST-1368DR,4256,4649,11592,01.192,552
2023-07-12T13:18:11,42.805,6.029,CST-1368DR,4256,4651,11597,01.190,552
2023-07-12T13:21:13,42.805,6.029,CST-1368DR,4256,4651,11597,01.190,552
2023-07-12T13:24:14,42.805,6.029,CST-1368DR,4256,4639,11568,01.200,552
2023-07-12T13:27:16,42.805,6.029,CST-1368DR,4256,4639,11566,01.201,552
2023-07-12T13:30:17,42.805,6.029,CST-1368DR,4256,4638,11564,01.202,552
2023-07-12T13:33:19,42.805,6.029,CST-1368DR,4256,4641,11572,01.199,552
2023-07-12T13:36:21,42.805,6.029,CST-1368DR,4256,4632,11549,01.207,552
2023-07-12T13:39:22,42.805,6.029,CST-1368DR,4256,4632,11549,01.207,552
2023-07-12T13:42:24,42.805,6.029,CST-1368DR,4256,4644,11579,01.196,552
2023-07-12T13:45:25,42.805,6.029,CST-1368DR,4256,4642,11575,01.198,552
2023-07-12T13:48:27,42.805,6.029,CST-1368DR,4256,4635,11556,01.204,552
2023-07-12T13:51:28,42.805,6.029,CST-1368DR,4256,4633,11551,01.206,552
2023-07-12T13:54:30,42.805,6.029,CST-1368DR,4256,4637,11563,01.202,552
2023-07-12T13:57:32,42.805,6.029,CST-1368DR,4256,4634,11554,01.205,552
2023-07-12T14:00:33,42.805,6.029,CST-1368DR,4256,4640,11569,01.200,552
2023-07-12T14:03:35,42.805,6.029,CST-1368DR,4256,4635,11557,01.204,552
2023-07-12T14:06:36,42.805,6.029,CST-1368DR,4256,4641,11571,01.199,552
2023-07-12T14:09:38,42.805,6.029,CST-1368DR,4256,4638,11564,01.202,552
2023-07-12T14:12:39,42.805,6.029,CST-1368DR,4256,4643,11577,01.197,552
2023-07-12T14:15:41,42.805,6.029,CST-1368DR,4256,4638,11565,01.201,552
2023-07-12T14:18:43,42.805,6.029,CST-1368DR,4256,4633,11551,01.206,552
2023-07-12T14:21:44,42.805,6.029,CST-1368DR,4256,4638,11565,01.201,552
2023-07-12T14:24:46,42.805,6.029,CST-1368DR,4256,4636,11560,01.203,552
2023-07-12T14:27:47,42.805,6.029,CST-1368DR,4256,4636,11559,01.203,552
2023-07-12T14:30:50,42.805,6.029,CST-1368DR,4256,4636,11560,01.203,552
2023-07-12T14:33:52,42.805,6.029,CST-1368DR,4256,4637,11562,01.202,552
2023-07-12T14:36:54,42.805,6.029,CST-1368DR,4256,4634,11555,01.205,552
2023-07-12T14:39:55,42.805,6.029,CST-1368DR,4256,4635,11557,01.204,552
2023-07-12T14:42:57,42.805,6.029,CST-1368DR,4256,4632,11550,01.206,552
2023-07-12T14:45:58,42.805,6.029,CST-1368DR,4256,4635,11557,01.204,552
2023-07-12T14:49:00,42.805,6.029,CST-1368DR,4256,4630,11544,01.209,552
2023-07-12T14:52:01,42.805,6.029,CST-1368DR,4256,4635,11558,01.204,552
2023-07-12T14:55:03,42.805,6.029,CST-1368DR,4256,4636,11560,01.203,552
2023-07-12T14:58:05,42.805,6.029,CST-1368DR,4256,4636,11560,01.203,552
2023-07-12T15:01:06,42.805,6.029,CST-1368DR,4256,4636,11559,01.203,552
2023-07-12T15:04:08,42.805,6.029,CST-1368DR,4256,4636,11560,01.203,552
2023-07-12T15:07:09,42.805,6.029,CST-1368DR,4256,4638,11564,01.202,552
2023-07-12T15:10:11,42.805,6.029,CST-1368DR,4256,4635,11558,01.204,552
2023-07-12T15:13:12,42.805,6.029,CST-1368DR,4256,4632,11550,01.206,552
2023-07-12T15:16:14,42.805,6.029,CST-1368DR,4256,4638,11564,01.202,552
2023-07-12T15:19:16,42.805,6.029,CST-1368DR,4256,4636,11560,01.203,552
2023-07-12T15:22:17,42.805,6.029,CST-1368DR,4256,4635,11558,01.204,552
2023-07-12T15:25:19,42.805,6.029,CST-1368DR,4256,4636,11559,01.203,552
2023-07-12T15:28:20,42.805,6.029,CST-1368DR,4256,4634,11554,01.205,552
2023-07-12T15:31:22,42.805,6.029,CST-1368DR,4256,4635,11557,01.204,552
2023-07-12T15:34:24,42.805,6.029,CST-1368DR,4256,4636,11559,01.203,552
2023-07-12T15:37:25,42.805,6.029,CST-1368DR,4256,4636,11560,01.203,552
2023-07-12T15:40:27,42.805,6.029,CST-1368DR,4256,4636,11560,01.203,552
2023-07-12T15:43:28,42.805,6.029,CST-1368DR,4256,4639,11566,01.201,552
2023-07-12T15:46:30,42.805,6.029,CST-1368DR,4256,4635,11557,01.204,552
2023-07-12T15:49:31,42.805,6.029,CST-1368DR,4256,4634,11555,01.205,552
2023-07-12T15:52:33,42.805,6.029,CST-1368DR,4256,4635,11558,01.204,552
2023-07-12T15:55:35,42.805,6.029,CST-1368DR,4256,4634,11554,01.205,552
2023-07-12T15:58:36,42.805,6.029,CST-1368DR,4256,4628,11540,01.210,552
2023-07-12T16:01:38,42.805,6.029,CST-1368DR,4256,4634,11555,01.205,552
2023-07-12T16:04:39,42.805,6.029,CST-1368DR,4256,4636,11559,01.203,552
2023-07-12T16:07:41,42.805,6.029,CST-1368DR,4256,4635,11557,01.204,552
2023-07-12T16:10:42,42.805,6.029,CST-1368DR,4256,4634,11554,01.205,552
2023-07-12T16:13:44,42.805,6.029,CST-1368DR,4256,4634,11554,01.205,552
2023-07-12T16:16:46,42.805,6.029,CST-1368DR,4256,4632,11550,01.206,552
2023-07-12T16:19:47,42.805,6.029,CST-1368DR,4256,4634,11555,01.205,552
2023-07-12T16:22:49,42.805,6.029,CST-1368DR,4256,4635,11557,01.204,552
2023-07-12T16:25:50,42.805,6.029,CST-1368DR,4256,4634,11554,01.205,552
2023-07-12T16:28:52,42.805,6.029,CST-1368DR,4256,4633,11551,01.206,552
2023-07-12T16:31:53,42.805,6.029,CST-1368DR,4256,4635,11558,01.204,552
2023-07-12T16:34:55,42.805,6.029,CST-1368DR,4256,4635,11558,01.204,552
2023-07-12T16:37:56,42.805,6.029,CST-1368DR,4256,4635,11556,01.204,552